x

9439040 - Astoria, Or (asto3) Weather Station

6:54 - Wed 7th Dec 2016 All times are PST. -8 hours from GMT.

  • Wind
    7mph, 13mph gusts
  • Sea Temp 46°f
  • Aire Temp 37°f
  • Sea Pressure 1022.3mb
  • 9439040 - Astoria, Or
  • 9439040 - Astoria, Or

More Historic Weather Station data

Upgrade to MSW Pro to gain access to the past 30 days of data for over 8000 Wavebouys and Weather Stations around the globe.

Join Pro

Comparision Forecast

View Surf forecast
   
mié 12/07 6:54 7 13 mph 1022.3mb 46f 37f
6:48 3 11 mph 1022.5mb 46f 37f
6:42 8 10 mph 1022.5mb 46f 37f
6:36 3 10 mph 1022.6mb 46f 37f
6:30 5 9 mph 1022.7mb 46f 37f
6:24 5 7 mph 1022.7mb 46f 37f
6:18 5 15 mph 1022.8mb 46f 37f
6:12 3 9 mph 1022.8mb 46f 37f
6:06 5 11 mph 1022.9mb 46f 37f
6:00 5 13 mph 1023mb 47f 37f
5:54 5 11 mph 1022.9mb 47f 37f
5:48 6 8 mph 1023mb 47f 37f
5:42 3 10 mph 1023.1mb 47f 38f
5:36 8 10 mph 1023.1mb 47f 38f
5:30 5 9 mph 1023.2mb 47f 38f
5:24 8 10 mph 1023.3mb 47f 38f
5:18 6 11 mph 1023.3mb 46f 38f
5:12 2 10 mph 1023.3mb 46f 38f
5:06 7 13 mph 1023.3mb 46f 38f
5:00 5 13 mph 1023.4mb 46f 38f
4:54 9 18 mph 1023.4mb 46f 38f
4:48 5 17 mph 1023.5mb 47f 38f
4:42 7 11 mph 1023.5mb 47f 38f
4:36 5 9 mph 1023.6mb 47f 38f
4:30 6 11 mph 1023.6mb 47f 38f
4:24 5 11 mph 1023.7mb 47f 38f
4:18 3 9 mph 1023.8mb 47f 38f
4:12 5 7 mph 1023.9mb 47f 38f
4:06 5 10 mph 1024mb 47f 39f
4:00 3 8 mph 1024.1mb 47f 38f
3:54 5 9 mph 1024.2mb 47f 39f
3:48 5 9 mph 1024.2mb 47f 39f
3:42 6 10 mph 1024.2mb 47f 39f
3:36 3 9 mph 1024.3mb 47f 39f
3:30 6 11 mph 1024.3mb 47f 39f
3:24 5 11 mph 1024.4mb 47f 39f
3:18 3 11 mph 1024.5mb 47f 39f
3:12 6 9 mph 1024.5mb 47f 39f
3:06 7 10 mph 1024.6mb 47f 39f
3:00 7 13 mph 1024.7mb 47f 39f
2:54 5 10 mph 1024.7mb 47f 39f
2:48 3 9 mph 1024.7mb 47f 39f
2:42 6 15 mph 1024.7mb 47f 39f
2:36 7 11 mph 1024.7mb 47f 39f
2:30 10 15 mph 1024.8mb 47f 39f
2:24 7 11 mph 1024.9mb 47f 39f
2:18 7 11 mph 1024.9mb 47f 39f
2:12 7 11 mph 1024.9mb 47f 39f
2:06 6 14 mph 1025mb 47f 39f
2:00 6 11 mph 1025mb 47f 39f
1:54 3 14 mph 1025mb 47f 39f
1:48 8 14 mph 1024.9mb 47f 38f
1:42 7 11 mph 1025mb 47f 38f
1:36 8 15 mph 1025.1mb 47f 39f
1:30 5 13 mph 1025.2mb 47f 39f
1:24 8 16 mph 1025.3mb 47f 38f
1:18 9 16 mph 1025.5mb 47f 38f
1:12 8 15 mph 1025.6mb 47f 38f
1:06 10 18 mph 1025.6mb 47f 38f
1:00 13 20 mph 1025.6mb 47f 38f
12:54 10 16 mph 1025.6mb 47f 38f
12:48 13 18 mph 1025.6mb 47f 38f
12:42 6 18 mph 1025.8mb 47f 38f
12:36 13 20 mph 1025.7mb 48f 37f
12:30 14 21 mph 1025.8mb 48f 37f
12:24 16 22 mph 1025.8mb 48f 37f
12:18 16 22 mph 1025.8mb 48f 37f
12:12 11 18 mph 1026mb 48f 37f
12:06 10 21 mph 1026.1mb 48f 37f
12:00 14 18 mph 1026.1mb 47f 37f
11:54 8 17 mph 1026.2mb 47f 37f
11:48 11 16 mph 1026.3mb 47f 37f
11:42 10 22 mph 1026.4mb 47f 37f
11:36 8 18 mph 1026.5mb 47f 37f
11:30 9 21 mph 1026.5mb 48f 37f
11:24 14 18 mph 1026.6mb 48f 37f
11:18 13 20 mph 1026.7mb 48f 36f
11:12 9 15 mph 1026.9mb 47f 36f
11:06 13 18 mph 1027.1mb 47f 36f
11:00 11 17 mph 1027.3mb 47f 36f
10:54 10 18 mph 1027.3mb 47f 36f
10:48 10 17 mph 1027.3mb 47f 36f
10:42 13 17 mph 1027.4mb 47f 35f
10:36 11 18 mph 1027.4mb 48f 35f
10:30 9 17 mph 1027.4mb 48f 35f
10:24 9 15 mph 1027.5mb 47f 35f
10:18 11 18 mph 1027.6mb 47f 35f
10:12 9 17 mph 1027.7mb 47f 35f
10:06 8 14 mph 1027.8mb 47f 35f
10:00 8 16 mph 1027.7mb 47f 35f
9:54 7 16 mph 1027.7mb 47f 35f
9:48 9 16 mph 1027.6mb 48f 35f
9:42 2 7 mph 1027.8mb 48f 36f
9:36 5 8 mph 1027.7mb 48f 36f
9:30 6 11 mph 1027.7mb 48f 35f
9:24 10 13 mph 1027.6mb 48f 35f
9:18 5 11 mph 1027.6mb 48f 35f
9:12 3 8 mph 1027.6mb 48f 35f
9:06 7 14 mph 1027.6mb 48f 35f
9:00 3 11 mph 1027.6mb 48f 35f
8:54 7 11 mph 1027.7mb 47f 35f
8:48 6 13 mph 1027.7mb 47f 35f
8:42 7 13 mph 1027.7mb 47f 35f
8:36 6 13 mph 1027.7mb 47f 35f
8:30 3 13 mph 1027.8mb 47f 35f
8:24 6 14 mph 1027.8mb 47f 35f
8:18 9 14 mph 1027.7mb 47f 35f
8:12 3 10 mph 1027.7mb 47f 34f
8:06 8 14 mph 1027.6mb 47f 34f
8:00 5 14 mph 1027.6mb 47f 34f
7:54 7 13 mph 1027.6mb 47f 34f
7:48 9 11 mph 1027.6mb 47f 34f
7:42 6 10 mph 1027.6mb 47f 34f
7:36 6 11 mph 1027.7mb 47f 34f
7:30 5 9 mph 1027.8mb 47f 34f
7:24 7 9 mph 1027.8mb 47f 34f
7:18 6 10 mph 1027.8mb 47f 34f
7:12 7 10 mph 1027.9mb 47f 34f
7:06 8 13 mph 1027.8mb 47f 34f
7:00 7 11 mph 1027.7mb 47f 34f
6:54 7 11 mph 1027.7mb 47f 34f
6:48 7 11 mph 1027.8mb 47f 34f
6:42 6 13 mph 1027.8mb 47f 34f
6:36 5 8 mph 1027.9mb 47f 34f
6:30 6 10 mph 1027.9mb 47f 34f
6:24 6 10 mph 1028mb 47f 34f
6:18 5 9 mph 1028mb 47f 34f
6:12 6 10 mph 1027.9mb 47f 35f
6:06 6 9 mph 1027.9mb 47f 35f
6:00 5 8 mph 1027.9mb 47f 35f
5:54 6 10 mph 1028mb 47f 35f
5:48 7 10 mph 1028mb 47f 35f
5:42 5 9 mph 1028mb 47f 35f
5:36 6 10 mph 1027.9mb 47f 35f
5:30 8 13 mph 1027.8mb 47f 35f
5:24 6 13 mph 1027.9mb 47f 35f
5:18 7 9 mph 1027.9mb 47f 35f
5:12 6 10 mph 1027.9mb 47f 35f
5:06 3 8 mph 1027.8mb 47f 34f
5:00 6 9 mph 1027.9mb 47f 35f
4:54 3 6 mph 1027.9mb 47f 35f
4:48 6 10 mph 1027.9mb 47f 35f
4:42 5 7 mph 1027.9mb 47f 35f
4:36 3 8 mph 1027.9mb 47f 34f
4:30 6 10 mph 1028mb 47f 34f
4:24 8 9 mph 1027.9mb 47f 35f
4:18 7 9 mph 1027.8mb 47f 35f
4:12 3 9 mph 1027.9mb 47f 35f
4:06 5 8 mph 1027.8mb 47f 35f
4:00 7 9 mph 1027.8mb 47f 35f
3:54 6 10 mph 1027.8mb 47f 35f
3:48 7 9 mph 1027.7mb 47f 35f
3:42 8 11 mph 1027.7mb 47f 35f
3:36 6 10 mph 1027.7mb 47f 35f
3:30 2 8 mph 1027.8mb 47f 35f
3:24 2 8 mph 1027.9mb 47f 35f
3:18 3 7 mph 1028.1mb 47f 35f
3:12 2 6 mph 1028.1mb 47f 35f
3:06 2 6 mph 1028.1mb 47f 34f
3:00 2 3 mph 1028.2mb 47f 34f
2:54 2 5 mph 1028.3mb 47f 34f
2:48 1 5 mph 1028.3mb 47f 34f
2:42 2 6 mph 1028.3mb 47f 34f
2:36 3 7 mph 1028.2mb 47f 34f
2:30 3 7 mph 1028.2mb 47f 34f
2:24 3 6 mph 1028.2mb 47f 34f
2:18 3 5 mph 1028.2mb 47f 34f
2:12 2 6 mph 1028.1mb 47f 34f
2:06 3 6 mph 1028mb 47f 33f
2:00 5 6 mph 1028mb 47f 34f
1:54 5 7 mph 1028mb 47f 34f
1:48 5 6 mph 1028mb 47f 34f
1:42 2 6 mph 1028mb 47f 34f
1:36 2 6 mph 1028mb 47f 35f
1:30 5 7 mph 1027.9mb 47f 35f
1:24 1 2 mph 1027.9mb 47f 35f
1:18  -  2 mph 1027.9mb 47f 35f
1:12 1 8 mph 1027.9mb 47f 35f
1:06 5 9 mph 1027.9mb 47f 35f
1:00 6 10 mph 1027.8mb 47f 35f
12:54 7 9 mph 1027.8mb 47f 35f
12:48 6 9 mph 1027.7mb 47f 35f
12:42 6 9 mph 1027.7mb 47f 35f
12:36 6 10 mph 1027.6mb 47f 36f
12:30 7 10 mph 1027.5mb 47f 36f
12:24 7 10 mph 1027.5mb 48f 36f
12:18 5 7 mph 1027.4mb 48f 35f
12:12  -  5 mph 1027.3mb 48f 35f
12:06 1 5 mph 1027.2mb 48f 35f
12:00 2 3 mph 1027.2mb 48f 35f
mar 12/06 11:54 1 2 mph 1027.2mb 48f 34f
11:48 1 2 mph 1027.2mb 48f 34f
11:42 1 2 mph 1027.2mb 48f 34f
11:36  -  2 mph 1027.2mb 48f 34f
11:30 2
mph
1027.1mb 48f 34f
11:24 1 3 mph 1027.1mb 48f 34f
11:18  -  2 mph 1027.1mb 48f 34f
11:12  -  2 mph 1027.1mb 48f 34f
11:06 1 2 mph 1027mb 48f 34f
11:00  -  2 mph 1027mb 48f 34f
10:54 1 2 mph 1026.9mb 48f 34f
10:48 1 2 mph 1026.8mb 48f 34f
10:42 1 2 mph 1026.7mb 48f 34f
10:36 1
mph
1026.7mb 48f 34f
10:30 1 2 mph 1026.6mb 48f 34f
10:24  -  1 mph 1026.7mb 48f 34f
10:18 1 2 mph 1026.6mb 48f 35f
10:12  -  2 mph 1026.6mb 48f 35f
10:06 2 5 mph 1026.5mb 48f 34f
10:00 5 7 mph 1026.5mb 48f 35f
9:54 3 6 mph 1026.4mb 48f 35f
9:48 2 6 mph 1026.4mb 48f 35f
9:42 3 6 mph 1026.3mb 48f 36f
9:36 2 3 mph 1026.1mb 48f 35f
9:30 1 3 mph 1026.1mb 48f 35f
9:24 3 6 mph 1026mb 48f 35f
9:18 1 3 mph 1026mb 48f 35f
9:12 3 5 mph 1025.9mb 48f 35f
9:06 5
mph
1025.9mb 48f 35f
9:00 1 2 mph 1025.9mb 48f 35f
8:54  -  2 mph 1025.9mb 48f 36f
8:48 1 3 mph 1025.9mb 48f 36f
8:42 2 3 mph 1025.9mb 48f 36f
8:36 2 3 mph 1026mb 48f 36f
8:30 1 2 mph 1025.9mb 48f 35f
8:24 1 2 mph 1025.9mb 48f 36f
8:18  -  2 mph 1025.8mb 48f 35f
8:12 1 2 mph 1025.7mb 48f 35f
8:06 1 2 mph 1025.6mb 48f 35f
8:00 2
mph
1025.6mb 48f 35f
7:54 1 2 mph 1025.6mb 48f 35f
7:48 1 2 mph 1025.7mb 48f 36f
7:42 2
mph
1025.6mb 48f 36f
7:36 1 2 mph 1025.6mb 48f 36f
7:30  -  2 mph 1025.5mb 48f 36f
7:24 1 2 mph 1025.5mb 48f 36f
7:18  -  2 mph 1025.4mb 48f 36f
7:12 1
mph
1025.4mb 48f 37f
7:06 1 2 mph 1025.2mb 48f 37f
7:00 1 5 mph 1025.1mb 48f 37f
6:54 2 3 mph 1025.1mb 48f 37f
6:48 2 6 mph 1025mb 48f 37f
6:30 2 5 mph 1024.8mb 48f 38f
6:24 2 6 mph 1024.7mb 48f 38f
6:18 5 7 mph 1024.7mb 48f 39f
6:12 3 9 mph 1024.8mb 48f 39f
6:06 5 7 mph 1024.8mb 47f 39f
6:00 6 10 mph 1024.8mb 47f 39f
5:54 5 8 mph 1024.8mb 47f 39f
5:48 6 9 mph 1024.7mb 47f 39f
4:54 2 13 mph 1024.1mb 48f 40f
4:48 6 9 mph 1024.1mb 48f 40f
4:30 3 6 mph 1023.9mb 48f 40f
4:24 2 7 mph 1023.9mb 48f 40f
4:18 2 6 mph 1023.8mb 48f 40f
4:12 5 8 mph 1023.7mb 48f 41f
4:06 6 8 mph 1023.7mb 48f 41f
4:00 3 7 mph 1023.7mb 48f 41f
3:54 7 8 mph 1023.6mb 48f 41f
3:48 6 8 mph 1023.5mb 48f 41f
3:42 1 6 mph 1023.4mb 48f 41f
3:36 6 9 mph 1023.4mb 48f 41f
3:30  -  5 mph 1023.3mb 48f 43f
3:24 2 6 mph 1023.2mb 48f 41f
3:18 2 7 mph 1023.1mb 48f 41f
3:12 6
mph
1023mb 48f 41f
3:06 5 6 mph 1022.9mb 48f 42f
3:00 3 8 mph 1022.8mb 48f 42f
2:54 6 8 mph 1022.7mb 48f 42f
2:48 3 6 mph 1022.6mb 48f 42f
2:42 2 6 mph 1022.6mb 48f 43f
2:36 1 6 mph 1022.5mb 48f 43f
2:30 5 8 mph 1022.4mb 48f 42f
2:24 5 7 mph 1022.3mb 48f 42f
2:18 2 7 mph 1022.1mb 48f 43f
2:12 2 7 mph 1022mb 48f 42f
2:06 2 7 mph 1021.9mb 48f 42f
2:00 5 7 mph 1021.9mb 48f 42f
1:54 3 8 mph 1021.8mb 48f 42f
1:48 6 9 mph 1021.7mb 48f 41f
1:42 6 8 mph 1021.7mb 48f 41f
1:36 6 7 mph 1021.7mb 48f 41f
1:30 5 8 mph 1021.7mb 48f 41f
1:24 5 8 mph 1021.7mb 48f 41f
1:18 7 10 mph 1021.6mb 48f 40f
1:12 7 10 mph 1021.5mb 48f 41f
1:06 5 10 mph 1021.5mb 48f 41f
1:00 5 8 mph 1021.4mb 48f 41f
12:54 5 6 mph 1021.4mb 48f 41f
12:48 5 7 mph 1021.5mb 48f 41f
12:42 3 7 mph 1021.5mb 48f 41f
12:36 6 8 mph 1021.5mb 48f 41f
12:30 6 9 mph 1021.4mb 48f 41f
12:24 7 14 mph 1021.3mb 48f 40f
12:18 7 10 mph 1021.1mb 48f 40f
12:12 6 10 mph 1021.1mb 48f 40f
12:06 5 10 mph 1021.2mb 48f 40f
12:00 7 11 mph 1021.1mb 48f 40f
11:54 8 13 mph 1021.1mb 48f 40f
11:48 6 9 mph 1021mb 48f 40f
11:42 2 6 mph 1021mb 48f 39f
11:36 2 6 mph 1021mb 48f 39f
11:30 5 7 mph 1021mb 48f 39f
11:24 6 8 mph 1021mb 48f 39f
11:18 6 8 mph 1021mb 48f 38f
11:12 5 9 mph 1020.9mb 48f 39f
11:06 6 7 mph 1020.9mb 48f 39f
11:00 7 9 mph 1020.9mb 48f 39f
10:54 6 10 mph 1020.9mb 48f 39f
10:48 9 11 mph 1020.8mb 48f 38f
10:30 8 11 mph 1020.6mb 48f 38f
10:24 5 9 mph 1020.5mb 48f 38f
10:18 8 11 mph 1020.5mb 48f 38f
10:12 7 10 mph 1020.4mb 48f 38f
10:06 7 11 mph 1020.2mb 49f 38f
10:00 5 11 mph 1020.1mb 49f 38f
9:54 6 8 mph 1020.1mb 48f 38f
9:48 6 10 mph 1020mb 49f 38f
9:30 6 8 mph 1019.8mb 49f 38f
9:24 6 9 mph 1019.7mb 48f 37f
9:18 6 9 mph 1019.6mb 48f 37f
9:12 7 9 mph 1019.5mb 48f 38f
9:06 7 8 mph 1019.4mb 48f 37f
9:00 6 8 mph 1019.3mb 48f 37f
8:54 6 9 mph 1019.2mb 48f 37f
8:48 3 6 mph 1019.1mb 48f 37f
8:42 5 9 mph 1019.1mb 48f 37f
8:36 5 10 mph 1019.1mb 48f 37f
8:30 6 8 mph 1019mb 48f 36f
8:24 5 7 mph 1018.9mb 49f 37f
8:18 3 8 mph 1018.9mb 49f 37f
8:12 5 7 mph 1018.8mb 49f 37f
8:06 2 5 mph 1018.6mb 48f 36f
8:00  -  3 mph 1018.5mb 48f 36f
7:54  -  2 mph 1018.4mb 48f 36f
7:48  -  3 mph 1018.3mb 48f 36f
7:42 1 3 mph 1018.2mb 48f 36f
7:36 1 5 mph 1018mb 48f 37f
7:30 6 10 mph 1018mb 48f 37f
7:24 7 10 mph 1018mb 48f 37f
7:18 6 9 mph 1017.9mb 48f 37f
7:12 6 8 mph 1017.9mb 48f 37f
7:06 3 6 mph 1017.8mb 48f 37f
7:00 2 3 mph 1017.7mb 48f 37f
6:54 1 7 mph 1017.6mb 48f 37f
6:48 6 8 mph 1017.6mb 48f 37f
6:42 1 8 mph 1017.5mb 48f 37f
6:36 5 6 mph 1017.5mb 48f 37f
6:30 5 8 mph 1017.3mb 48f 37f
6:24 6 8 mph 1017.3mb 48f 36f
6:18 6 9 mph 1017.3mb 48f 36f
6:12 3 8 mph 1017.2mb 48f 37f
6:06 5 9 mph 1017.2mb 48f 37f
6:00 5 8 mph 1017.2mb 48f 37f
5:54 6 8 mph 1017.2mb 48f 36f
5:48 3 9 mph 1017.1mb 48f 36f
5:42 3 8 mph 1017.1mb 48f 36f
5:36 5 11 mph 1017.1mb 48f 36f
5:30 8 13 mph 1017.1mb 48f 37f
5:24 5 9 mph 1017.1mb 48f 37f
5:18 5 9 mph 1017mb 48f 36f
5:12 5 9 mph 1016.9mb 48f 36f
5:06 3 8 mph 1017mb 48f 37f
5:00 5 9 mph 1016.9mb 48f 36f
4:54 5 9 mph 1016.9mb 48f 37f
4:48 7 10 mph 1016.9mb 48f 37f
4:42 5 9 mph 1016.8mb 48f 37f
4:36 2 10 mph 1016.7mb 48f 37f
4:30 5 7 mph 1016.7mb 48f 37f
4:24 6 11 mph 1016.6mb 48f 37f
4:18 5 6 mph 1016.5mb 48f 37f
4:12 3 8 mph 1016.4mb 48f 37f
4:06 2 3 mph 1016.4mb 48f 37f
4:00 3 7 mph 1016.4mb 48f 37f
3:54 5 9 mph 1016.4mb 48f 37f
3:48 3 8 mph 1016.4mb 48f 37f
3:42 6 10 mph 1016.4mb 48f 37f
3:36 7 10 mph 1016.4mb 48f 37f
3:30 6 8 mph 1016.3mb 48f 37f
3:24 6 7 mph 1016.4mb 48f 37f
3:18 5 8 mph 1016.4mb 48f 37f
3:12 3 8 mph 1016.4mb 48f 37f
3:06 2 6 mph 1016.3mb 48f 37f
3:00 3 7 mph 1016.3mb 48f 37f
2:54 6 8 mph 1016.4mb 48f 37f
2:48 5 7 mph 1016.3mb 48f 37f
2:42 2 7 mph 1016.3mb 48f 37f
2:36 2 6 mph 1016.3mb 48f 37f
2:30 2 6 mph 1016.3mb 48f 36f
2:24 2 5 mph 1016.2mb 48f 36f
2:18 1 5 mph 1016.1mb 48f 36f
2:12 3 6 mph 1016.1mb 48f 36f
2:06  -  3 mph 1016mb 48f 36f
2:00 2 3 mph 1016mb 48f 36f
1:54 3 7 mph 1016mb 48f 36f
1:48 3 6 mph 1015.9mb 48f 36f
1:42 3 6 mph 1015.9mb 48f 36f
1:36 3 5 mph 1015.8mb 48f 36f
1:30  -  2 mph 1015.8mb 48f 36f
1:24 1 7 mph 1015.7mb 48f 36f
1:18 5 6 mph 1015.6mb 48f 36f
1:12 2 3 mph 1015.7mb 48f 36f
1:06 5 8 mph 1015.6mb 48f 35f
1:00 2 5 mph 1015.7mb 48f 36f
12:54 2 6 mph 1015.7mb 48f 36f
12:48 3 7 mph 1015.8mb 48f 36f
12:42 5 6 mph 1015.8mb 48f 36f
12:36 2 3 mph 1015.7mb 48f 36f
12:30 1 3 mph 1015.7mb 48f 36f
12:24 3 7 mph 1015.8mb 48f 37f
12:18 2 5 mph 1015.8mb 48f 37f
12:12 1 3 mph 1015.8mb 48f 37f
12:06 2 5 mph 1015.9mb 48f 37f
12:00 3 9 mph 1016mb 48f 37f
lun 12/05 11:54 6 10 mph 1016mb 48f 37f
11:48 5 8 mph 1016mb 48f 37f
11:42 2 6 mph 1016mb 48f 37f
11:36 3 7 mph 1016mb 48f 37f
11:30 2 9 mph 1016mb 48f 37f
11:24 3 9 mph 1015.9mb 48f 37f
11:18 5 9 mph 1015.9mb 48f 37f
11:12 6 10 mph 1015.9mb 48f 37f
11:06 3 9 mph 1015.9mb 48f 37f
11:00 2 3 mph 1016mb 48f 37f
10:54 2 5 mph 1016mb 48f 37f
10:48 1 6 mph 1016mb 48f 37f
10:42 2 3 mph 1016mb 48f 37f
10:36 2
mph
1015.8mb 48f 37f
10:30 1 2 mph 1015.8mb 48f 37f
10:24 1 3 mph 1015.8mb 48f 36f
10:18 2 5 mph 1015.8mb 48f 36f
10:12 3 6 mph 1015.9mb 48f 36f
10:06 5 6 mph 1015.9mb 48f 36f
10:00 3 5 mph 1015.9mb 48f 36f
9:54 2
mph
1015.8mb 48f 36f
9:48  -  2 mph 1015.8mb 48f 36f
9:42 1 2 mph 1015.8mb 48f 36f
9:36 1 2 mph 1015.8mb 48f 36f
9:30 1 2 mph 1015.8mb 49f 36f
9:24 2
mph
1015.8mb 49f 36f
9:18 1 3 mph 1015.8mb 49f 36f
9:12 2 3 mph 1015.8mb 49f 36f
9:06 1 2 mph 1015.8mb 49f 36f
9:00 1 3 mph 1015.8mb 48f 36f
8:54 2 3 mph 1015.8mb 48f 36f
8:48 1 2 mph 1015.8mb 48f 36f
8:42 2
mph
1015.9mb 48f 36f
8:36  -  1 mph 1015.9mb 48f 36f
8:30  -  1 mph 1016mb 48f 35f
8:24  -  2 mph 1015.9mb 48f 36f
8:18 1 3 mph 1015.8mb 48f 35f
8:12 2 3 mph 1015.8mb 48f 35f
8:06 1 2 mph 1015.9mb 48f 35f
8:00 1 2 mph 1015.9mb 48f 35f
7:54 2 3 mph 1015.8mb 48f 35f
7:48 2
mph
1015.9mb 48f 35f
7:42 2 3 mph 1016mb 48f 35f
7:36 2 3 mph 1016mb 48f 36f
7:30 1 7 mph 1016.1mb 48f 35f
7:24 6 8 mph 1016.1mb 48f 35f
7:18 7 10 mph 1016mb 48f 36f
7:12 8 10 mph 1016mb 48f 36f
7:06 8 11 mph 1015.9mb 48f 36f
7:00 2 8 mph 1016mb 48f 37f
6:54 3 6 mph 1015.9mb 48f 37f
6:48 3 6 mph 1016mb 48f 37f
6:42 2 10 mph 1016.1mb 48f 37f
6:36 5 8 mph 1016.3mb 48f 36f
6:30 1 5 mph 1016.3mb 48f 37f
6:24 5 6 mph 1016.4mb 48f 37f
6:18 2 5 mph 1016.5mb 49f 37f
6:12 2 6 mph 1016.5mb 49f 37f
6:06 2 6 mph 1016.5mb 49f 37f
6:00 5 6 mph 1016.5mb 49f 37f
5:54 2 5 mph 1016.5mb 49f 38f
5:48 2 5 mph 1016.4mb 48f 38f
5:42  -  5 mph 1016.3mb 48f 38f
5:36 1 3 mph 1016.2mb 48f 38f
5:30  -  3 mph 1016.2mb 48f 37f
5:24 2 3 mph 1016.1mb 48f 37f
5:18 2 5 mph 1016.1mb 48f 37f
5:12 2 3 mph 1016.1mb 48f 37f
5:06 2 5 mph 1016.1mb 48f 37f
5:00 2 5 mph 1016.1mb 48f 37f
4:54 3 5 mph 1016.1mb 48f 37f
4:48 1 5 mph 1016.1mb 48f 37f
4:42 3 7 mph 1016.2mb 48f 37f
4:36 5 6 mph 1016.2mb 48f 37f
4:30 1 3 mph 1016.4mb 48f 37f
4:24 3 8 mph 1016.5mb 48f 37f
4:18 6 10 mph 1016.5mb 48f 37f
4:12 9 11 mph 1016.6mb 48f 38f
4:06 5 7 mph 1016.4mb 48f 38f
4:00  -  1 mph 1016.3mb 48f 38f
3:54 1 5 mph 1016.3mb 48f 38f
3:48 2 5 mph 1016.3mb 48f 38f
3:42  -  2 mph 1016.3mb 48f 38f
3:36 1 3 mph 1016.3mb 48f 38f
3:30 1 3 mph 1016.3mb 48f 38f
3:24 2 5 mph 1016.4mb 48f 38f
3:18 3 5 mph 1016.3mb 48f 38f
3:12 3 6 mph 1016.4mb 48f 38f
3:06 5 7 mph 1016.4mb 48f 38f
3:00 7 9 mph 1016.5mb 48f 38f
2:54 6 10 mph 1016.7mb 48f 38f
2:48 3 10 mph 1016.7mb 48f 39f
2:42 8 11 mph 1017.1mb 48f 39f
2:36 10 13 mph 1017.1mb 48f 39f
2:30 9 11 mph 1016.8mb 48f 39f
2:24 7 9 mph 1016.8mb 48f 39f
2:18 6 10 mph 1016.8mb 48f 40f
2:12 6 10 mph 1016.7mb 48f 40f
2:06 2 8 mph 1016.7mb 48f 40f
2:00 7 10 mph 1016.7mb 48f 40f
1:54 8 10 mph 1016.8mb 48f 40f
1:48 5 9 mph 1016.8mb 49f 40f
1:42 5 8 mph 1016.8mb 49f 40f
1:36 6 11 mph 1016.9mb 49f 40f
1:30 10 14 mph 1017.1mb 49f 40f
1:24 8 11 mph 1016.9mb 49f 40f
1:18 7 11 mph 1017.1mb 49f 39f
1:12 8 11 mph 1017.1mb 49f 39f
1:06 8 13 mph 1017.3mb 49f 39f
1:00 8 13 mph 1017.4mb 49f 39f
12:54 7 11 mph 1017.4mb 48f 39f
12:48 10 14 mph 1017.5mb 48f 39f
12:42 8 11 mph 1017.6mb 48f 40f
12:36 7 8 mph 1017.6mb 48f 40f
12:30 6 7 mph 1017.6mb 48f 40f
12:24 5
mph
1017.7mb 48f 40f
12:18 2 3 mph 1017.8mb 48f 40f
12:12 2 3 mph 1017.8mb 48f 40f
12:06 1 6 mph 1017.8mb 48f 40f
12:00 3 8 mph 1017.9mb 48f 40f
11:54 5 9 mph 1017.9mb 48f 40f
11:48 7 11 mph 1018mb 48f 39f
11:42 7 10 mph 1018mb 48f 39f
11:36 9 13 mph 1018.2mb 48f 39f
11:30 10 13 mph 1018.1mb 48f 39f
11:24 8 11 mph 1018.1mb 48f 39f
11:18 6 8 mph 1018.2mb 48f 39f
11:12 6 9 mph 1018.2mb 48f 39f
11:06 5 8 mph 1018.2mb 48f 39f
11:00 5 8 mph 1018.2mb 48f 39f
10:54 2 5 mph 1018.3mb 48f 39f
10:48 5 7 mph 1018.4mb 48f 39f
10:42 5 8 mph 1018.5mb 48f 39f
10:36 3 7 mph 1018.6mb 48f 38f
10:30 3 7 mph 1018.6mb 48f 38f
10:24 2 3 mph 1018.7mb 48f 37f
10:18 1 9 mph 1018.8mb 48f 37f
10:12 5 13 mph 1018.8mb 48f 37f
10:06 9 14 mph 1018.8mb 48f 37f
10:00 8 13 mph 1018.8mb 48f 38f
9:54 2 3 mph 1018.7mb 48f 38f
9:48 3
mph
1018.6mb 48f 38f
9:42 2 3 mph 1018.6mb 48f 38f
9:36 2 5 mph 1018.5mb 48f 38f
9:30 5 6 mph 1018.5mb 48f 38f
9:24 5 7 mph 1018.5mb 48f 37f
9:18 3 6 mph 1018.6mb 48f 37f
9:12  -  5 mph 1018.5mb 48f 37f
9:06 5 6 mph 1018.5mb 48f 37f
9:00 3 6 mph 1018.4mb 48f 37f
8:54 3 6 mph 1018.4mb 48f 37f
8:48 5 6 mph 1018.5mb 48f 37f
8:42 6 7 mph 1018.6mb 49f 38f
8:36 3 5 mph 1018.7mb 49f 38f
8:30 1 3 mph 1018.8mb 49f 38f
8:24 2 5 mph 1018.9mb 49f 38f
8:18 5 6 mph 1018.9mb 49f -
8:12 3 7 mph 1018.8mb 48f -
8:06 5 7 mph 1018.9mb 49f -
8:00 2 14 mph 1019mb 49f 37f
7:54 8 11 mph 1019mb 49f 37f
7:48 9 13 mph 1019mb 49f 37f
7:42 7 10 mph 1019.1mb 49f 37f
7:36 5 9 mph 1019mb 49f 37f
7:30 2 10 mph 1018.9mb 49f 38f
7:24 9 13 mph 1018.6mb 49f 37f
7:18 7 16 mph 1019mb 49f 37f
7:12 16 20 mph 1019.3mb 49f 37f
7:06 2 3 mph 1019.2mb 48f 38f
7:00 2 3 mph 1018.8mb 48f 38f
6:54 3 5 mph 1018.8mb 48f 38f
6:48 2 3 mph 1018.7mb 48f 38f
6:42 3
mph
1018.7mb 48f 38f
6:36 3 5 mph 1018.8mb 48f 38f
6:30 3 6 mph 1019mb 48f 37f
6:24 5 7 mph 1019.1mb 48f 37f
6:18 5 6 mph 1019.2mb 48f 37f
6:12 3 7 mph 1019.2mb 48f 37f
6:06 8 11 mph 1019.4mb 48f 37f
6:00 8 11 mph 1019.4mb 48f 38f
5:54 3 9 mph 1019.7mb 48f 39f
5:48 8 14 mph 1019.5mb 48f 38f
5:42 10 15 mph 1019.1mb 48f 38f
5:36 9 14 mph 1019.2mb 48f 38f
5:30 10 15 mph 1019.3mb 48f 37f
5:24 9 11 mph 1019.6mb 48f 37f
5:18 8 13 mph 1019.6mb 48f 37f
5:12 7 14 mph 1019.6mb 49f 38f
5:06 11 15 mph 1019.5mb 48f 37f
5:00 10 15 mph 1019.7mb 48f 37f
4:54 9 14 mph 1019.9mb 49f 37f
4:48 8 11 mph 1020mb 49f 37f
4:42 8 11 mph 1020.3mb 49f 37f
4:36 10 11 mph 1020.3mb 49f 37f
4:30 8 9 mph 1020.3mb 49f 37f
4:24 8 11 mph 1020.5mb 49f 37f
4:18 8 11 mph 1020.6mb 49f 37f
4:12 6 8 mph 1020.8mb 49f 37f
4:06 3 8 mph 1020.8mb 49f 37f
4:00 3 8 mph 1021mb 49f 37f
3:54 6 8 mph 1021mb 49f 37f
3:48 6 7 mph 1021.1mb 49f 37f
3:42 5 8 mph 1021.4mb 49f 37f
3:36 6 8 mph 1021.5mb 48f 37f
3:30 3 6 mph 1021.5mb 48f 37f
3:24 2 3 mph 1021.6mb 49f 37f
3:18 2 8 mph 1021.8mb 49f 37f
3:12 7 9 mph 1021.8mb 48f 37f
3:06 8 14 mph 1021.8mb 48f 37f
3:00 9 11 mph 1021.9mb 49f 38f
2:54 5 10 mph 1022mb 49f 37f
2:48 6 11 mph 1021.9mb 49f 37f
2:42 9 13 mph 1022mb 49f 37f
2:36 6 9 mph 1022mb 48f 37f
2:30 6 11 mph 1022mb 48f 37f
2:24 8 11 mph 1022.1mb 48f 36f
2:18 7 10 mph 1022.2mb 48f 36f
2:12 6 9 mph 1022.4mb 48f 36f
2:06 7 11 mph 1022.2mb 48f 36f
2:00 9 13 mph 1022.2mb 48f 36f
1:54 13 15 mph 1022.4mb 49f 36f
1:48 7 11 mph 1022.4mb 49f 37f
1:42 10 14 mph 1022.4mb 49f 37f
1:36 10 15 mph 1022.3mb 49f 37f
1:30 10 14 mph 1022.2mb 49f 36f
1:24 9 15 mph 1022.3mb 49f 36f
1:18 9 15 mph 1022.2mb 49f 36f
1:12 10 15 mph 1022.2mb 49f 36f
1:06 11 13 mph 1022.5mb 49f 36f
1:00 9 11 mph 1022.8mb 49f 36f
12:54 8 9 mph 1022.9mb 49f 37f
12:48 6 7 mph 1023.1mb 49f 37f
12:42 5 6 mph 1023.1mb 49f 38f
12:36 5 6 mph 1023.2mb 49f 38f
12:30 2 6 mph 1023.2mb 49f 37f
12:24 5 8 mph 1023mb 49f 37f
12:18 5 7 mph 1022.9mb 49f 37f
12:12 6 9 mph 1022.9mb 49f 37f
12:06 7 11 mph 1022.8mb 49f 37f
12:00 9 13 mph 1022.8mb 49f 37f
dom 12/04 11:54 9 11 mph 1022.8mb 49f 37f
11:48 6 11 mph 1022.8mb 49f 36f
11:42 7 11 mph 1022.9mb 49f 37f
11:36 7 10 mph 1022.9mb 49f 37f
11:30 8 11 mph 1022.9mb 49f 37f
11:24 8 11 mph 1022.9mb 49f 37f
11:18 8 13 mph 1023.1mb 49f 36f
11:12 7 9 mph 1023.2mb 49f 37f
11:06 6 8 mph 1023.2mb 49f 37f
11:00 6 8 mph 1023.2mb 49f 37f
10:54 6 8 mph 1023.2mb 49f 37f
10:48 6 7 mph 1023.3mb 49f 37f
10:42 5 6 mph 1023.2mb 49f 37f
10:36 5 6 mph 1023.2mb 49f 38f
10:30 3
mph
1023.3mb 49f 38f
10:24 2 6 mph 1023.3mb 49f 38f
10:18 3 6 mph 1023.2mb 49f 39f
10:12 5 6 mph 1023.1mb 49f 39f
10:06  -  7 mph 1023.1mb 49f 39f
10:00 2 9 mph 1023.3mb 49f 39f
9:54 1 15 mph 1023.3mb 49f 39f
9:48 2 6 mph 1023.3mb 49f -
9:42 3 10 mph 1022.9mb 49f -
9:36 5 15 mph 1022.8mb 49f -
9:30 5 17 mph 1022.9mb 49f 41f
9:24 6 10 mph 1022.8mb 49f 42f
9:18 2 6 mph 1022.7mb 49f 41f
9:12 5 10 mph 1022.7mb 49f 41f
9:06 10 17 mph 1022.7mb 49f 40f
9:00 8 13 mph 1022.8mb 49f 41f
8:54 11 14 mph 1022.6mb 49f 41f
8:48 13 18 mph 1022.5mb 49f 42f
8:42 14 20 mph 1022.4mb 49f 42f
8:36 11 20 mph 1022.3mb 49f 43f
8:30 3 6 mph 1022.1mb 49f 44f
8:24 3 6 mph 1022.2mb 49f 44f
8:18 3 7 mph 1022.2mb 49f 44f
8:12  -  6 mph 1022.1mb 49f 43f
8:06 3 8 mph 1022.1mb 49f 44f
8:00 1 7 mph 1022.2mb 49f 44f
7:54 6 10 mph 1022.2mb 49f 43f
7:48 2 7 mph 1022.2mb 49f 43f
7:42 2 7 mph 1022.2mb 49f 43f
7:36 3 7 mph 1022.1mb 49f 44f
7:30 3 9 mph 1022.2mb 49f 43f
7:24 3 9 mph 1022.3mb 49f 43f
7:18 2 6 mph 1022.3mb 49f 43f
7:12 2 6 mph 1022.4mb 49f 43f
7:06 2 7 mph 1022.4mb 49f 43f
7:00 3 7 mph 1022.4mb 49f 43f
6:54 8 11 mph 1022.3mb 49f 43f
6:48 9 11 mph 1022.3mb 49f 43f
6:42 8 10 mph 1022.2mb 49f 43f
6:36 6 10 mph 1022.1mb 49f 42f
6:30 5 8 mph 1022.1mb 49f 42f
6:24 6 11 mph 1022.1mb 49f 43f
6:18 7 9 mph 1022.1mb 49f 43f
6:12 3 8 mph 1022.1mb 49f 43f
6:06 7 13 mph 1022.2mb 49f 43f
6:00 13 21 mph 1022.2mb 49f 42f
5:54 13 20 mph 1022.3mb 49f 42f
5:48 1 3 mph 1021.7mb 49f 43f
5:42 3 6 mph 1021.5mb 49f 43f
5:36 3 6 mph 1021.7mb 49f 42f
5:30 3
mph
1021.6mb 49f 42f
5:24 2 5 mph 1021.6mb 49f 42f
5:18 2 5 mph 1021.5mb 49f 42f
5:12 2 3 mph 1021.6mb 49f 42f
5:06 3
mph
1021.5mb 49f 42f
5:00 2 5 mph 1021.6mb 49f 42f
4:54 3 5 mph 1021.5mb 49f 42f
4:48 3 5 mph 1021.4mb 49f 42f
4:42 3 5 mph 1021.4mb 49f 42f
4:36 5
mph
1021.3mb 49f 41f
4:30 2
mph
1021.4mb 49f 42f
4:24 2
mph
1021.4mb 49f 42f
4:18 1 3 mph 1021.4mb 49f 43f
4:12 3 6 mph 1021.4mb 49f 43f
4:06 5 7 mph 1021.5mb 49f 43f
4:00 8 10 mph 1021.5mb 49f 43f
3:54 9 13 mph 1021.5mb 49f 43f
3:48 9 11 mph 1021.7mb 49f 44f
3:42 9 13 mph 1021.5mb 49f 44f
3:36 2 3 mph 1021.3mb 49f 44f
3:30 2 7 mph 1021.4mb 49f 45f
3:24 2 7 mph 1021.4mb 49f 44f
3:18 7 13 mph 1021.5mb 49f 45f
3:12 11 15 mph 1021.3mb 49f 44f
3:06 9 13 mph 1021.2mb 49f 44f
3:00 10 17 mph 1021.1mb 49f 44f
2:54 16 20 mph 1021.1mb 49f 43f
2:48 17 26 mph 1021mb 49f 44f
2:42 20 24 mph 1021mb 49f 43f
2:36 21 29 mph 1020.9mb 49f 43f
2:30 24 31 mph 1020.8mb 49f 44f
2:24 15 22 mph 1020.7mb 49f 45f
2:18 10 24 mph 1020.5mb 49f 44f
2:12 22 32 mph 1020.7mb 49f 44f
2:06 25 31 mph 1020.7mb 49f 44f
2:00 13 16 mph 1020.2mb 49f 47f
1:54 10 15 mph 1020mb 49f 47f
1:48 14 25 mph 1020mb 49f 47f
1:42 15 20 mph 1020.1mb 49f 47f
1:36 14 17 mph 1020.1mb 49f 47f
1:30 14 17 mph 1020mb 49f 48f
1:24 13 20 mph 1020mb 49f 48f
1:18 14 17 mph 1019.9mb 49f 48f
1:12 14 17 mph 1019.9mb 49f 48f
1:06 16 22 mph 1019.9mb 49f 48f
1:00 15 18 mph 1020mb 49f 48f
12:54 15 20 mph 1020mb 49f 48f
12:48 15 20 mph 1020mb 49f 48f
12:42 13 16 mph 1020mb 49f 48f
12:36 15 17 mph 1020mb 49f 47f
12:30 11 15 mph 1020mb 49f 47f
12:24 13 16 mph 1020mb 49f 47f
12:18 9 11 mph 1020mb 49f 47f
12:12 11 14 mph 1020.1mb 49f 47f
12:06 10 11 mph 1020.1mb 49f 47f
12:00 10 13 mph 1020.2mb 49f 47f
11:54 9 11 mph 1020.2mb 49f 46f
11:48 9 11 mph 1020.2mb 49f 46f
11:42 8 11 mph 1020.2mb 49f 45f
11:36 7 9 mph 1020.2mb 49f 45f
11:30 8 20 mph 1020.2mb 49f 44f
11:24 18 25 mph 1020.5mb 49f 45f
11:18 5 11 mph 1020.3mb 49f 46f
11:12 3 7 mph 1020.2mb 49f 47f
11:06 6 9 mph 1020.2mb 49f 46f
11:00 6 10 mph 1020.2mb 49f 46f
10:54 10 13 mph 1020.2mb 49f 45f
10:48 8 23 mph 1020.2mb 49f 45f
10:42 13 17 mph 1020.5mb 49f 46f
10:36 9 13 mph 1020.3mb 49f 46f
10:30 7 10 mph 1020.1mb 49f 46f
10:24 9 11 mph 1020mb 49f 46f
10:18 6 10 mph 1020mb 49f 46f
10:12 6 13 mph 1019.9mb 49f 46f
10:06 7 9 mph 1019.9mb 49f 46f
10:00 6 10 mph 1019.8mb 49f 45f
9:54 8 11 mph 1019.7mb 49f 45f
9:48 8 13 mph 1019.7mb 49f 45f
9:42 9 15 mph 1019.7mb 49f 45f
9:36 9 11 mph 1019.7mb 49f 45f
9:30 6 9 mph 1019.6mb 49f 45f
9:24 9 13 mph 1019.6mb 49f 44f
9:18 10 11 mph 1019.5mb 49f 45f
9:12 10 13 mph 1019.5mb 49f 44f
9:06 7 10 mph 1019.4mb 49f 44f
9:00 9 14 mph 1019.3mb 49f 44f
8:54 15 22 mph 1019.3mb 49f 44f
8:48 11 15 mph 1019.3mb 49f 44f
8:42 11 13 mph 1019.1mb 49f 45f
8:36 11 14 mph 1019mb 49f 45f
8:30 9 11 mph 1018.9mb 49f 46f
8:24 8 13 mph 1018.8mb 49f 45f
8:18 9 13 mph 1018.8mb 49f 45f
8:12 7 11 mph 1018.8mb 49f 45f
8:06 8 10 mph 1018.7mb 49f 45f
8:00 3 6 mph 1018.6mb 49f 44f
7:54 5 8 mph 1018.6mb 49f 44f
7:48 7 10 mph 1018.7mb 49f 43f
7:42 9 13 mph 1018.9mb 49f 43f
7:36 11 17 mph 1018.8mb 49f 44f
7:30 17 22 mph 1018.8mb 49f 43f
7:24 20 23 mph 1018.9mb 49f 44f
7:18 20 26 mph 1018.7mb 49f 43f
7:12 18 23 mph 1018.8mb 49f 44f
7:06 5 7 mph 1018.6mb 49f 44f
7:00 3 6 mph 1018.4mb 49f 44f
6:54 5 8 mph 1018.4mb 49f 44f
6:48 7 13 mph 1018.4mb 49f 44f
6:42 11 14 mph 1018.5mb 49f 44f
6:36 13 14 mph 1018.5mb 49f 44f
6:30 14 22 mph 1018.6mb 49f 43f
6:24 22 30 mph 1018.8mb 49f 43f
6:18 8 13 mph 1018.6mb 49f 46f
6:12 5 10 mph 1018.2mb 49f 45f
6:06 8 13 mph 1018.2mb 49f 45f
6:00 10 14 mph 1018.4mb 49f 45f
5:54 8 14 mph 1018.4mb 49f 45f
5:48 9 13 mph 1018.5mb 49f 45f
5:42 9 16 mph 1018.4mb 49f 45f
5:36 15 20 mph 1018.4mb 49f 45f
5:30 14 18 mph 1018.4mb 49f 45f
5:24 13 16 mph 1018.4mb 49f 45f
5:18 14 16 mph 1018.4mb 49f 45f
5:12 13 15 mph 1018.4mb 49f 45f
5:06 13 17 mph 1018.3mb 49f 45f
5:00 13 20 mph 1018.4mb 49f 45f
4:54 13 17 mph 1018.5mb 49f 45f
4:48 14 16 mph 1018.5mb 49f 46f
4:42 10 17 mph 1018.5mb 49f 46f
4:36 11 15 mph 1018.6mb 49f 46f
4:30 14 16 mph 1018.5mb 49f 46f
4:24 10 15 mph 1018.6mb 49f 46f
4:18 9 14 mph 1018.5mb 49f 46f
4:12 11 16 mph 1018.5mb 49f 46f
4:06 13 16 mph 1018.4mb 49f 46f
4:00 14 17 mph 1018.4mb 49f 46f